Location: Ripley
(48.3812°N, 115.4473°W)
Time: 23:21:43
(UTC+00:00)

EO-79 - Pass Details

Date: 30 June 2022
Orbit: 588 x 603 km, 98.0° (Epoch: 18 August)

Event Time Altitude Azimuth Distance (km) Brightness Sun altitude
Rises 10:25:13 0° 4° (N) 2,856 ? -10.0°
Reaches altitude 10° 10:27:36 10° 353° (N) 1,951 ? -9.8°
Maximum altitude 10:31:13 28° 294° (WNW) 1,132 ? -9.4°
Enters shadow 10:34:42 11° 236° (WSW) 1,894 ? -9.1°
